Powrót do katalogu

KUIPER-00047

AktywnyŁącznośćLEO
NORAD 64507·PAYLOAD·🇺🇸 United States

Wystrzelony Jun 23, 2025 z Cape Canaveral Space Force Station

Loading…

Następne Przeloty (najbliższe 24 godziny)

TLE

ŚwieżeSource: CelesTrak SupGP

Epoka: Sep 15, 2026, 01:34 UTC

1 64507C 25134H   26258.06539352  .00006203  00000+0  81216-3 0  2582
2 64507  51.8978  98.1321 0000803 110.0631  43.6049 14.79917657    12

Śledź KUIPER-00047 w czasie rzeczywistym z AllMySat

Download on the App Store